www.pogodaiklimat.ru

Погода и климат >> Архив погоды >> Ливия >> Marada


ПОГОДА в Marada

  • Прогноз погоды в Marada
  • Монитор погоды в Marada
  • Климат города

АРХИВ ПОГОДЫ в Marada

Время (UTC), дата Ветер
(напр.,м/с)
 
Видим.   Явления Облачность Т
(С)
Тd
(С)
f
(%)
Тe
(С)
Тes
(С)
Комфортность P
(гПа)
Po
(гПа)
Тmin
(С)
Tmax
(С)
R
(мм)
R24
(мм)
S
(см)
00 18.05 400 м {морось} ?/? +20.1 1008.5 1009.0
03 18.05 3400 м {дождь} ?/? +30.1 1010.2 1010.0
06 18.05 14 км {морось} ?/? +30.1 1011.7 1012.0
09 18.05 1000 м {морось} ?/? +30.1 1013.1 1013.0
12 18.05 2400 м {туман} ?/? +30.1 1013.8 1014.0
15 18.05 н/о {туман} ?/? +30.1 1013.5 1014.0
18 18.05 50 км {туман} ?/? +30.1 1012.4 1012.0
21 18.05 1400 м {метель} ?/? +30.1 1011.5 1012.0
00 19.05 400 м {ливн. осадки} ?/? +30.2 1008.2 1008.0
03 19.05 3400 м {метель} ?/? +40.3 1004.0 1004.0
06 19.05 14 км {дождь} ?/? +40.3 1002.8 1003.0
09 19.05 1000 м ?/? +40.2 1003.0 1003.0
12 19.05 2400 м {туман} ?/? +40.3 1007.0 1007.0
15 19.05 н/о {морось} ?/? +40.3 1010.0 1010.0
18 19.05 50 км {морось} ?/? +40.3 1011.7 1012.0
21 19.05 1400 м ?/? +40.2 1013.1 1013.0
00 20.05 400 м {гроза} ?/? +40.2 1013.8 1014.0
03 20.05 3400 м {ливн. осадки} ?/? +40.2 1013.8 1014.0
06 20.05 14 км {ливн. осадки} ?/? +40.2 1015.2 1015.0
09 20.05 1000 м {снег} ?/? +30.1 1016.9 1017.0
12 20.05 2400 м {ливн. осадки} ?/? +30.2 1018.3 1018.0
15 20.05 н/о {ливн. осадки} ?/? +30.2 1019.4 1019.0
18 20.05 50 км ?/? +40.2 1020.4 1020.0
21 20.05 1400 м ?/? +40.2 1021.6 1022.0
00 21.05 400 м {туман} ?/? +40.3 1022.8 1023.0
03 21.05 3400 м ?/? +40.2 1023.3 1023.0
06 21.05 14 км {гроза} ?/? +40.2 1024.7 1025.0
09 21.05 1000 м {ливн. осадки} ?/? +40.2 1026.3 1026.0
12 21.05 2400 м {снег} ?/? +40.1 1026.6 1027.0
15 21.05 н/о {дождь} ?/? +40.1 1025.8 1026.0
18 21.05 50 км {морось} ?/? +40.1 1024.4 1024.0
21 21.05 1400 м {туман} ?/? +30.1 1023.8 1024.0
00 22.05 400 м {туман} ?/? +20.1 1023.2 1023.0
03 22.05 3400 м {туман} ?/? +30.1 1021.2 1021.0
06 22.05 14 км {морось} ?/? +30.1 1020.5 1021.0
09 22.05 1000 м {туман} ?/? +30.1 1019.8 1020.0
12 22.05 2400 м {туман} ?/? +20.1 1018.9 1019.0
15 22.05 н/о {метель} ?/? +30.1 1017.2 1017.0
18 22.05 50 км {метель} ?/? +30.1 1015.8 1016.0
21 22.05 1400 м {метель} ?/? +30.1 1015.3 1015.0
00 23.05 400 м ?/? +30.0 1014.6 1015.0
03 23.05 3400 м {метель} ?/? +20.1 1014.3 1014.0
06 23.05 14 км {морось} ?/? +20.1 1016.3 1016.0
09 23.05 1000 м {дождь} ?/? +30.1 1018.8 1019.0
12 23.05 2400 м {морось} ?/? +30.1 1020.9 1021.0
15 23.05 н/о {туман} ?/? +30.1 1021.8 1022.0
18 23.05 50 км {метель} ?/? +30.1 1022.3 1022.0
21 23.05 1400 м {метель} ?/? +30.1 1023.0 1023.0
00 24.05 400 м {метель} ?/? +30.1 1023.0 1023.0
03 24.05 3400 м {метель} ?/? +30.1 1022.5 1023.0
06 24.05 14 км {туман} ?/? +30.1 1023.7 1024.0
09 24.05 1000 м {метель} ?/? +30.1 1024.8 1025.0
12 24.05 2400 м {метель} ?/? +30.1 1025.5 1026.0
15 24.05 н/о {метель} ?/? +20.1 1025.8 1026.0
18 24.05 50 км {метель} ?/? +30.1 1025.9 1026.0

 

Местоположение метеостанции Marada (Ливия): широта 29.47 долгота 19.33 высота над уровнем моря 37 м.

В архиве по умолчанию представлена погода в Marada за последнюю неделю. Архивные данные за месяц целиком и за предыдущие месяцы, начиная с января 2011 года, Вы можете получить, выбрав интересующий диапазон дат из раскрывающегося списка и нажав кнопку "Ввод!".

Внимание! Время в таблицах - всемирное. Для получения местного времени необходимо прибавить поправку, которая в Marada равна 1 ч.

Смотрите также архив погоды в соседних городах и на ближайших метеорологических станциях:

Погода в Jalo (Ливия) (223 км)
Погода в Benina (Ливия) (306 км)
Погода в Sirte (Ливия) (327 км)
Погода в Hon (Ливия) (332 км)
Погода в Tazerbo (Ливия) (445 км)
Погода в Vyeboom (Южная Африка) (519 км)
Погода в Misurata (Ливия) (524 км)
Погода в Sebha (Ливия) (550 км)
Погода в Beni Walid (Ливия) (554 км)
Погода в Gariat El-Sharghia (Ливия) (563 км)

Пояснения к столбцам:

Ветер - указаны скорость ветра в м/с - средняя за 10 мин, порывы в срок и между сроками (в фигурных скобках) и направление, откуда дует ветер: С - северный, СВ - северо-восточный, В - восточный, ЮВ - юго-восточный, Ю - южный, ЮЗ - юго-западный, З - западный, СЗ - северо-западный.
Видимость - горизонтальная дальность видимости в метрах или километрах. При видимости от 1 до 10 км при отсутствии осадков обычно наблюдается дымка, при ухудшении видимости до 1 км и менее - туман. В сухую погоду видимость может ухудшаться дымом, пылью или мглою.
Явления - указаны атмосферные явления, наблюдавшиеся в срок или в последний час перед сроком; фигурными скобками обозначены явления, наблюдавшиеся между сроками (за 1-3 часа до срока); квадратными скобками обозначены град или гололедные отложения с указанием их диаметра в мм.
Облачность - указаны через наклонную черту общая и нижняя облачность в баллах и высота нижней границы облаков в метрах; квадратными скобками обозначены формы облаков: Ci - перистые, Cs - перисто-слоистые, Cc - перисто-кучевые, Ac - высококучевые, As - высокослоистые, Sc - слоисто-кучевые, Ns - слоисто-дождевые, Cu - кучевые, Cb - кучево-дождевые. Подробнее классификацию облаков см. в Атласе облаков (PDF).
T - Температура воздуха - температура, измеренная на высоте 2 м над землей.
Td - Температура точки росы - температура, при понижении до которой содержащийся в воздухе водяной пар достигнет насыщения.
f - Относительная влажность воздуха - влажноcть воздуха, измеренная на высоте 2 м над землей.
Te - Эффективная температура - температура, которую ощущает одетый по сезону человек в тени. Характеристика душности погоды. При расчете учитывается влияние влажности воздуха и скорости ветра на теплоощущения человека.
Tes - Эффективная температура на солнце - температура, которую ощущает человек, с поправкой на солнечный нагрев. Характеристика знойности погоды. Зависит от высоты солнца над горизонтом, облачности и скорости ветра. Ночью, в пасмурную погоду, а также при ветре 12 м/с и более поправка равна нулю.
P - Атмосферное давление - приведенное к уровню моря атмосферное давление.
Po - Атмосферное давление - измеренное на уровне метеостанции атмосферное давление.
Tmin - Минимальная температура - минимум температуры воздуха на высоте 2 м над землей.
Tmax - Максимальная температура - максимум температуры воздуха на высоте 2 м над землей.
R - Количество осадков - Количество выпавших осадков за период времени, мм. При наведении курсора мыши на число - период времени, за который выпало указанное количество осадков.
R24 - Количество осадков - Количество выпавших осадков за 24 часа, мм.
S - Снежный покров - Высота снежного покрова, см. При наведении курсора мыши на число - состояние снежного покрова и степень покрытия местности в баллах.